[[{"header":{"parameterUnit":"m.s-1","parameterCategory":1,"la1":30.2991,"la2":30.254,"lo1":-89.0895,"lo2":-89.0444,"dy":0.0017,"dx":0.0017,"nx":28,"ny":28,"refTime":"2023-09-06T09:00:00:Z","depth":0,"parameterNumber":2,"parameterNumberName":"U-component_of_WINDS"},"data":[0,0,0,0,0,0,0,0,0,0,0,0,0,0,0,0,0,0,0,0,0,0,0,0,0,0,0,0,0,0,0,0,0,0,0,0,0,0,0,0,0,0,0,0,0,0,0,0,0,0,0,0,0,0,0,0,0,0,2.3147,2.3147,0,2.3171,2.3171,2.3171,2.3163,2.3163,2.3162,2.3162,2.3187,2.3188,2.3189,0,0,0,0,0,0,0,0,0,0,0,0,0,2.3095,2.3096,2.3147,2.3147,2.3147,2.3171,2.3171,2.3171,2.3163,2.3163,2.3162,2.3161,2.3186,2.3188,2.3189,0,0,0,0,0,0,0,0,0,0,0,0,0,2.3118,2.3097,2.3147,2.3146,2.3146,2.3171,2.3171,2.3171,2.3163,2.3163,2.3162,2.3161,2.3186,2.3188,2.3189,2.3216,0,0,2.3195,2.3195,0,0,0,0,0,0,0,0,2.3117,2.312,2.3146,2.3146,2.3146,2.3163,2.3162,2.3186,2.3164,2.3157,2.3162,2.3161,2.318,2.3182,2.3188,2.3217,2.3218,2.3195,2.3196,2.3197,2.3197,0,0,0,0,0,0,0,2.3115,2.3119,2.3156,2.3146,2.3147,2.3145,2.3147,2.3167,2.3172,2.3157,2.3157,2.316,2.318,2.3186,2.3189,2.3218,2.3195,2.3196,2.3197,2.3198,2.3271,2.3272,0,0,0,0,0,0,2.3114,2.3118,2.3155,2.3157,2.3129,2.3147,2.3149,2.3159,2.3172,2.3173,2.316,2.3159,2.3184,2.3187,2.3189,2.3222,2.3197,2.3198,2.3199,2.3271,2.3272,2.3273,0,0,0,0,0,0,2.3112,2.3117,2.3155,2.3137,2.3142,2.3148,2.3159,2.3159,2.3166,2.3174,2.3176,2.3166,2.3183,2.3187,2.321,2.3223,2.3199,2.3201,2.327,2.3271,2.3272,2.3287,0,0,0,0,0,0,2.3111,2.3117,2.3126,2.3138,2.3143,2.3174,2.316,2.3161,2.3169,2.3168,2.318,2.3181,2.3183,2.3207,2.3211,2.3225,2.3202,2.3268,2.327,2.3272,2.3285,2.3288,2.3291,0,0,0,0,0,2.3109,2.3129,2.3127,2.3132,2.3155,2.3175,2.3178,2.3179,2.317,2.318,2.3186,2.3181,2.3221,2.3209,2.3214,2.3228,2.3268,2.327,2.3272,2.3284,2.3288,2.3291,0,0,0,0,0,0,2.312,2.3131,2.3128,2.3153,2.3163,2.3173,2.3186,2.3183,2.3196,2.3194,2.3195,2.3198,2.3221,2.3227,2.3214,2.3255,2.3243,2.3246,2.325,2.3254,2.3257,2.3256,2.3203,0,0,0,0,0,2.3125,2.3139,2.3148,2.3169,2.3174,2.3179,2.3188,2.3188,2.3199,2.3203,2.321,2.3221,2.3236,2.3245,2.3259,2.3286,2.3289,2.3298,2.3301,2.3304,2.3306,2.3322,2.3326,2.3279,2.3279,2.3279,0,0,2.3136,2.3144,2.3153,2.3172,2.3179,2.3195,2.3183,2.32,2.3211,2.3205,2.3227,2.3233,2.3245,2.327,2.3281,2.3275,2.332,2.3306,2.3308,2.331,2.3324,2.3329,2.3333,2.3281,2.328,2.328,0,0,2.3163,2.317,2.3189,2.3197,2.3209,2.3213,2.3217,2.3228,2.3232,2.3254,2.325,2.3264,2.3289,2.3298,2.3306,2.3338,2.3335,2.3343,2.3359,2.3374,2.3378,2.3381,2.3393,2.3397,2.3346,2.3346,2.3346,0,2.3175,2.3198,2.3199,2.3216,2.3225,2.322,2.3239,2.3247,2.3263,2.327,2.3263,2.3295,2.3303,2.333,2.3338,2.3345,2.335,2.3341,2.3377,2.338,2.3383,2.3395,2.3399,2.3347,2.3346,2.3346,2.3346,0,2.3212,2.3228,2.3242,2.3258,2.3268,2.3286,2.329,2.3301,2.33,2.3304,2.3327,2.3336,2.3353,2.3359,2.3359,2.3387,2.3383,2.3376,2.3364,2.3389,2.3399,2.3404,2.3348,2.3348,2.3347,2.3347,0,0,2.3247,2.3263,2.3268,2.3276,2.3289,2.3302,2.332,2.3336,2.3345,2.3357,2.3372,2.3394,2.3389,2.3398,2.3399,2.3412,2.3437,2.3404,2.3404,2.341,2.3469,2.3474,2.3479,2.3435,2.3436,2.3436,2.3469,0,2.3276,2.3308,2.3309,2.3338,2.3354,2.335,2.3366,2.3376,2.3381,2.3395,2.34,2.3416,2.3407,2.3413,2.3425,2.3431,2.3449,2.3429,2.345,2.3451,2.3447,2.3485,2.349,2.352,2.3473,2.3473,2.3474,0,2.3314,2.3327,2.3357,2.3369,2.3376,2.339,2.3405,2.3418,2.343,2.3433,2.3443,2.3442,2.3462,2.3449,2.3476,2.3462,2.3471,2.3475,2.3476,2.3478,2.3464,2.3488,2.3529,2.3534,2.348,2.348,2.3479,0,2.3336,2.3361,2.3383,2.339,2.3404,2.3414,2.3421,2.3432,2.3442,2.3455,2.3462,2.3477,2.3486,2.3498,2.3501,2.3491,2.3528,2.3516,2.3531,2.3531,2.3539,2.3539,2.3582,2.3545,2.3544,2.3544,2.3544,0,2.3369,2.3388,2.3394,2.3407,2.3429,2.3431,2.3452,2.3458,2.3468,2.3483,2.3481,2.3495,2.3498,2.3513,2.3516,2.3538,2.3542,2.3545,2.3545,2.3545,2.3545,2.3551,2.3549,2.3546,2.3545,2.3545,2.3545,0,2.3398,2.3402,2.3426,2.3438,2.3441,2.3457,2.3467,2.348,2.3485,2.3504,2.3508,2.3516,2.3533,2.3538,2.3559,2.3561,2.3587,2.3585,2.3583,2.3583,2.3598,2.3597,2.3648,2.3655,2.3612,2.3612,2.3613,0,2.3418,2.3433,2.3446,2.3456,2.3463,2.3479,2.3489,2.3492,2.3502,2.3518,2.3529,2.3546,2.356,2.3588,2.3596,2.3612,2.3611,2.3628,2.3613,2.3613,2.3612,2.3611,2.3613,2.363,2.3631,2.3631,2.3631,0,2.3454,2.3456,2.347,2.3486,2.3498,2.351,2.3522,2.353,2.3535,2.3547,2.3565,2.3576,2.3597,2.3615,2.3631,2.3638,2.3636,2.3636,2.364,2.364,2.3638,2.364,2.359,2.3635,2.3634,2.3634,2.3634,2.3634,2.348,2.3493,2.3505,2.3521,2.353,2.3542,2.3555,2.3561,2.3576,2.3594,2.3595,2.3614,2.3626,2.3648,2.3656,2.3672,2.3667,2.3674,2.3675,2.3677,2.3678,2.3636,2.3675,2.3675,2.3675,2.3675,2.3675,0,2.3516,2.3524,2.3539,2.3555,2.3569,2.3565,2.3578,2.359,2.3607,2.3618,2.3632,2.3653,2.367,2.3679,2.3696,2.3707,2.3706,2.3711,2.371,2.3712,2.3682,2.3676,2.3711,2.3711,2.3711,2.3711,2.3711,2.3711,2.3536,2.3559,2.3562,2.3589,2.3596,2.3616,2.3623,2.3634,2.3643,2.3667,2.3681,2.3686,2.3697,2.3715,2.3731,2.3733,2.3739,2.3745,2.3747,2.3718,2.3714,2.3711,2.3706,2.3746,2.3746,2.3776,2.3776,2.3776]},{"header":{"parameterUnit":"m.s-1","parameterCategory":1,"la1":30.2991,"la2":30.254,"lo1":-89.0895,"lo2":-89.0444,"dy":0.0017,"dx":0.0017,"nx":28,"ny":28,"refTime":"2023-09-06T09:00:00:Z","depth":0,"parameterNumber":3,"parameterNumberName":"V-component_of_WINDS"},"data":[0,0,0,0,0,0,0,0,0,0,0,0,0,0,0,0,0,0,0,0,0,0,0,0,0,0,0,0,0,0,0,0,0,0,0,0,0,0,0,0,0,0,0,0,0,0,0,0,0,0,0,0,0,0,0,0,0,0,0.4882,0.4882,0,0.4864,0.4863,0.4863,0.487,0.487,0.4871,0.4871,0.4851,0.485,0.4849,0,0,0,0,0,0,0,0,0,0,0,0,0,0.492,0.4919,0.4882,0.4882,0.4881,0.4864,0.4863,0.4863,0.487,0.487,0.4871,0.4871,0.4851,0.485,0.4849,0,0,0,0,0,0,0,0,0,0,0,0,0,0.4903,0.4919,0.4882,0.4883,0.4882,0.4864,0.4863,0.4863,0.487,0.487,0.4871,0.4872,0.4852,0.4851,0.4849,0.4828,0,0,0.4845,0.4844,0,0,0,0,0,0,0,0,0.4904,0.4901,0.4883,0.4882,0.4882,0.487,0.487,0.4851,0.487,0.4875,0.4871,0.4872,0.4857,0.4855,0.485,0.4827,0.4826,0.4845,0.4844,0.4843,0.4843,0,0,0,0,0,0,0,0.4905,0.4902,0.4875,0.4882,0.4882,0.4883,0.4881,0.4866,0.4862,0.4874,0.4875,0.4872,0.4857,0.4851,0.485,0.4826,0.4845,0.4844,0.4843,0.4842,0.4782,0.4782,0,0,0,0,0,0,0.4906,0.4903,0.4875,0.4874,0.4895,0.4882,0.488,0.4873,0.4862,0.4861,0.4872,0.4873,0.4854,0.4851,0.4849,0.4822,0.4843,0.4842,0.4841,0.4783,0.4782,0.4781,0,0,0,0,0,0,0.4907,0.4904,0.4876,0.4889,0.4885,0.4881,0.4873,0.4872,0.4867,0.4861,0.486,0.4867,0.4854,0.4851,0.4833,0.4822,0.4841,0.484,0.4784,0.4783,0.4782,0.4769,0,0,0,0,0,0,0.4908,0.4904,0.4897,0.4888,0.4884,0.4861,0.4872,0.4872,0.4865,0.4866,0.4856,0.4855,0.4854,0.4835,0.4831,0.482,0.4839,0.4785,0.4784,0.4782,0.477,0.4768,0.4765,0,0,0,0,0,0.491,0.4894,0.4896,0.4893,0.4875,0.486,0.4858,0.4857,0.4864,0.4856,0.4852,0.4856,0.4824,0.4833,0.4829,0.4817,0.4786,0.4784,0.4782,0.4772,0.4768,0.4765,0,0,0,0,0,0,0.4901,0.4893,0.4896,0.4877,0.4869,0.4861,0.4851,0.4854,0.4843,0.4845,0.4844,0.4842,0.4823,0.4818,0.4829,0.4795,0.4806,0.4803,0.4799,0.4795,0.4793,0.4794,0.4838,0,0,0,0,0,0.4897,0.4886,0.4879,0.4863,0.4859,0.4856,0.4849,0.4849,0.4841,0.4838,0.4832,0.4823,0.4811,0.4803,0.4792,0.477,0.4767,0.476,0.4757,0.4755,0.4753,0.4739,0.4735,0.4776,0.4776,0.4776,0,0,0.4889,0.4883,0.4876,0.4862,0.4856,0.4843,0.4853,0.484,0.483,0.4836,0.4818,0.4813,0.4803,0.4783,0.4773,0.4778,0.4741,0.4753,0.4751,0.475,0.4737,0.4733,0.4729,0.4775,0.4775,0.4775,0,0,0.4866,0.4862,0.4847,0.4841,0.4831,0.4829,0.4825,0.4817,0.4814,0.4796,0.4799,0.4787,0.4767,0.4759,0.4752,0.4726,0.4728,0.4722,0.4708,0.4695,0.4691,0.4688,0.4677,0.4674,0.472,0.472,0.472,0,0.4857,0.4839,0.4839,0.4825,0.4818,0.4822,0.4807,0.48,0.4788,0.4782,0.4788,0.4761,0.4755,0.4732,0.4725,0.472,0.4715,0.4723,0.4692,0.4689,0.4686,0.4676,0.4672,0.4719,0.4719,0.4719,0.4719,0,0.4827,0.4814,0.4803,0.4791,0.4783,0.4768,0.4765,0.4756,0.4757,0.4753,0.4734,0.4727,0.4713,0.4708,0.4708,0.4684,0.4687,0.4692,0.4703,0.4682,0.4671,0.4668,0.4718,0.4718,0.4718,0.4718,0,0,0.4799,0.4786,0.4782,0.4775,0.4765,0.4755,0.4739,0.4726,0.4718,0.4709,0.4695,0.4677,0.4681,0.4674,0.4673,0.4662,0.4639,0.4668,0.4668,0.4662,0.461,0.4605,0.46,0.4641,0.464,0.464,0.461,0,0.4775,0.4749,0.4748,0.4724,0.4711,0.4714,0.4701,0.4692,0.4688,0.4676,0.4672,0.4658,0.4666,0.4661,0.465,0.4644,0.4628,0.4646,0.4627,0.4626,0.4628,0.4595,0.459,0.4563,0.4606,0.4605,0.4605,0,0.4744,0.4733,0.4708,0.4697,0.4692,0.468,0.4667,0.4656,0.4645,0.4643,0.4634,0.4635,0.4618,0.4629,0.4605,0.4617,0.4609,0.4605,0.4604,0.4601,0.4614,0.459,0.4554,0.4549,0.4599,0.46,0.46,0,0.4724,0.4704,0.4685,0.468,0.4668,0.4659,0.4653,0.4644,0.4635,0.4623,0.4618,0.4604,0.4596,0.4585,0.4582,0.459,0.4557,0.4568,0.4553,0.4553,0.4545,0.4546,0.4506,0.4542,0.4542,0.4542,0.4542,0,0.4697,0.4681,0.4676,0.4665,0.4646,0.4645,0.4626,0.4621,0.4612,0.4599,0.4601,0.4588,0.4585,0.4571,0.4568,0.4548,0.4544,0.4541,0.454,0.454,0.454,0.4534,0.4535,0.4541,0.4541,0.4542,0.4542,0,0.4672,0.4668,0.4648,0.4638,0.4635,0.4621,0.4612,0.4601,0.4597,0.458,0.4576,0.4569,0.4553,0.4548,0.4529,0.4527,0.4502,0.4504,0.4506,0.4505,0.449,0.4491,0.4444,0.4437,0.4479,0.4478,0.4478,0,0.4654,0.4641,0.463,0.4621,0.4615,0.4601,0.4592,0.459,0.4581,0.4567,0.4556,0.4541,0.4528,0.4501,0.4494,0.4479,0.4479,0.4464,0.4477,0.4477,0.4477,0.4477,0.4475,0.4461,0.4461,0.446,0.446,0,0.4622,0.4621,0.4608,0.4594,0.4584,0.4573,0.4562,0.4555,0.4551,0.454,0.4523,0.4513,0.4493,0.4477,0.4461,0.4454,0.4455,0.4456,0.4451,0.4451,0.4451,0.4449,0.4497,0.4457,0.4457,0.4457,0.4458,0.4458,0.4599,0.4587,0.4577,0.4562,0.4554,0.4544,0.4532,0.4526,0.4513,0.4496,0.4496,0.4477,0.4465,0.4444,0.4437,0.4421,0.4426,0.442,0.4418,0.4416,0.4414,0.4455,0.4419,0.4419,0.4419,0.4419,0.4419,0,0.4566,0.4559,0.4546,0.4531,0.4519,0.4522,0.451,0.45,0.4484,0.4473,0.446,0.444,0.4424,0.4415,0.4398,0.4387,0.4388,0.4383,0.4383,0.4381,0.4412,0.4416,0.4383,0.4383,0.4383,0.4383,0.4383,0.4383,0.4548,0.4528,0.4525,0.45,0.4493,0.4475,0.4468,0.4458,0.4449,0.4427,0.4413,0.4408,0.4397,0.438,0.4364,0.4362,0.4355,0.4349,0.4347,0.4376,0.4379,0.4383,0.4387,0.4348,0.4348,0.4318,0.4318,0.4318]}]]